Hourly Data Report for September 19, 2017

All times are specified in Local Standard Time (LST). Add 1 hour to adjust for Daylight Saving Time where and when it is observed.

BATHURST A
NEW BRUNSWICK

47°37'47.000" N
65°44'20.000" W
58.80 m
8100505
71574
ZBF

Download Data

Hourly Data (September 2017)
Hourly Data Report for September 19, 2017
Temp Definition
°C
Dew Point Temp Definition
°C
Rel Hum Definition
%
Wind Dir Definition
10's deg

Wind Spd Definition
km/h
Visibility Definition
km
Stn Press Definition
kPa
Hmdx Definition


Wind Chill Definition


Weather Definition


TIME
00:00 Legend Double Dagger 13.8 13.7 100 36 2 0.4 101.70     Fog
01:00 Legend Double Dagger 13.8 13.8 100 36 2 0.4 101.71     Fog
02:00 Legend Double Dagger 13.8 13.7 100 36 3 0.4 101.65     Fog
03:00 Legend Double Dagger 13.8 13.8 100 36 1 0.6 101.63     Fog
04:00 Legend Double Dagger 13.8 13.8 100 36 3 0.4 101.63     Fog
05:00 Legend Double Dagger 14.1 14.1 100 15 4 0.4 101.60     Fog
06:00 Legend Double Dagger 14.3 14.2 100 36 1 0.6 101.63     Fog
07:00 Legend Double Dagger 14.4 14.4 100 19 3 6.4 101.64     Fog
08:00 Legend Double Dagger 15.4 15.4 100 19 5 16.1 101.61     Cloudy
09:00 Legend Double Dagger 16.5 16.3 98 22 7 16.1 101.61     LegendNANA
10:00 Legend Double Dagger 17.9 16.4 91 21 7 16.1 101.62     LegendNANA
11:00 Legend Double Dagger 18.2 16.5 90 17 10 24.1 101.59     Cloudy
12:00 Legend Double Dagger 19.7 16.4 81 18 16 24.1 101.54     LegendNANA
13:00 Legend Double Dagger 20.4 16.8 79 20 16 24.1 101.45 26   LegendNANA
14:00 Legend Double Dagger 22.0 16.7 72 21 17 24.1 101.36 27   Mainly Clear
15:00 Legend Double Dagger 22.2 16.4 69 19 17 24.1 101.33 27   LegendNANA
16:00 Legend Double Dagger 22.1 16.8 72 21 10 24.1 101.30 27   LegendNANA
17:00 Legend Double Dagger 21.0 16.3 74 21 9 24.1 101.29 26   Mostly Cloudy
18:00 Legend Double Dagger 20.0 16.6 80 19 7 24.1 101.27 25   LegendNANA
19:00 Legend Double Dagger 18.5 16.5 88 19 8 24.1 101.28     LegendNANA
20:00 Legend Double Dagger 16.7 15.8 95 25 4 16.1 101.31     Clear
21:00 Legend Double Dagger 16.3 15.7 96 22 4 9.7 101.29     Fog
22:00 Legend Double Dagger 14.9 14.6 98 19 5 9.7 101.30     Fog
23:00 Legend Double Dagger 14.7 14.4 98 28 3 8.1 101.26     Fog

Notes on Data Quality.

Legend

  • E = Estimated
  • M = Missing
  • NA = Not Available
  • ‡ = Partner data that is not subject to review by the National Climate Archives
Date modified: